Stations météo

réclame
Mon MeteoGroup
Lanveoc Poulmic, France (7109): Température de l'air & dewpoint: 05.12.2018 00:00:00 - 11.12.2018 00:00:00 (CET)Lanveoc Poulmic, France (7109): Température de l'air 5cm: 05.12.2018 00:00:00 - 11.12.2018 00:00:00 (CET)Lanveoc Poulmic, France (7109): Vitesse du vent & gusts: 05.12.2018 00:00:00 - 11.12.2018 00:00:00 (CET)Lanveoc Poulmic, France (7109): Direction du vent: 05.12.2018 00:00:00 - 11.12.2018 00:00:00 (CET)Lanveoc Poulmic, France (7109): reduced air pressure: 05.12.2018 00:00:00 - 11.12.2018 00:00:00 (CET)Lanveoc Poulmic, France (7109): visibility: 05.12.2018 00:00:00 - 11.12.2018 00:00:00 (CET)Lanveoc Poulmic, France (7109): Quantités de précipitations: 05.12.2018 00:00:00 - 11.12.2018 00:00:00 (CET)
Date & Time tt [°C] td [°C] tt 5cm [°C] ff [km/h] ff [knt] fx [km/h] fx [knt] dd ppp [hPa] vv [km] rr [mm]
11.12.2018 00:00:00 - - - - - - - - - - -
10.12.2018 23:00:00 9,0 6,8 8,3 5 3 10 5 ESE 1029,2 15 0,0
10.12.2018 22:00:00 9,2 7,1 8,4 5 3 8 4 SE 1029,2 13 0,0
10.12.2018 21:00:00 9,2 7,1 7,8 5 3 10 5 SSE 1029,6 14 0,0
10.12.2018 20:00:00 9,1 7,0 7,5 7 4 9 5 S 1029,9 14 0,0
10.12.2018 19:00:00 9,3 7,2 6,8 6 4 8 5 S 1030,1 15 0,0
10.12.2018 18:00:00 9,2 6,5 7,5 6 3 7 4 S 1030,6 15 0,0
10.12.2018 17:00:00 10,5 6,4 9,4 4 2 12 6 SSW 1030,9 20 0,0
10.12.2018 16:00:00 11,4 6,5 10,8 5 3 12 6 W 1031,1 23 0,0
10.12.2018 15:00:00 10,9 6,4 10,5 7 4 14 7 WNW 1031,4 15 0,0
10.12.2018 14:00:00 11,5 6,0 9,8 7 4 25 14 WSW 1031,5 23 0,0
10.12.2018 13:00:00 11,1 6,4 10,8 5 3 12 6 WNW 1032,2 20 0,0
10.12.2018 12:00:00 11,0 6,5 12,6 6 4 17 9 WNW 1032,5 17 0,0
10.12.2018 11:00:00 10,1 6,2 9,3 6 4 18 10 W 1032,3 19 0,0
10.12.2018 10:00:00 9,2 5,7 8,2 9 5 13 7 WNW 1032,2 20 0,0
10.12.2018 09:00:00 8,4 5,7 6,5 12 6 16 9 WNW 1032,0 32 0,0
10.12.2018 08:00:00 8,0 5,1 6,8 8 5 16 9 WNW 1032,2 16 0,0
10.12.2018 07:00:00 8,9 5,6 7,7 7 4 14 7 W 1032,1 15 0,0
10.12.2018 06:00:00 8,4 5,3 5,4 10 5 14 8 W 1031,7 14 0,0
10.12.2018 05:00:00 8,4 5,3 6,0 9 5 13 7 W 1031,8 13 0,0
10.12.2018 04:00:00 8,5 5,6 6,4 9 5 16 9 WNW 1031,8 20 0,0
10.12.2018 03:00:00 8,3 5,4 6,6 10 5 22 12 WNW 1031,8 20 0,0
10.12.2018 02:00:00 8,3 5,0 6,3 9 5 22 12 WNW 1031,6 20 0,0
10.12.2018 01:00:00 8,4 4,8 7,4 15 8 27 15 WNW 1031,6 20 0,0
10.12.2018 00:00:00 8,8 5,2 7,7 15 8 28 15 WNW 1031,1 20 0,0
09.12.2018 23:00:00 9,0 5,2 8,4 19 10 36 19 WNW 1030,9 20 0,0
09.12.2018 22:00:00 9,5 5,1 8,4 23 13 36 19 WNW 1030,2 20 0,0
09.12.2018 21:00:00 9,5 5,5 8,5 23 13 36 20 NW 1029,6 19 0,0
09.12.2018 20:00:00 9,8 5,6 8,9 26 14 39 21 WNW 1029,0 19 0,0
09.12.2018 19:00:00 10,3 6,1 9,2 28 15 44 24 NW 1028,4 17 0,0
09.12.2018 18:00:00 10,0 5,6 9,0 27 14 46 25 NW 1027,5 17 0,0
09.12.2018 17:00:00 10,6 5,8 9,9 28 15 55 30 NW 1026,8 17 0,0
09.12.2018 16:00:00 11,4 6,5 11,1 34 19 58 32 NW 1025,9 15 0,0
09.12.2018 15:00:00 12,0 6,7 11,0 36 19 63 34 WNW 1024,8 13 0,0
09.12.2018 14:00:00 11,8 6,1 11,0 37 20 64 35 WNW 1024,3 17 0,0
09.12.2018 13:00:00 11,6 6,3 11,0 39 21 63 34 WNW 1023,6 17 0,0
09.12.2018 12:00:00 11,7 6,4 10,3 37 20 73 39 WNW 1023,1 14 0,0
09.12.2018 11:00:00 11,5 6,4 10,6 41 22 70 38 WNW 1021,8 13 0,0
09.12.2018 10:00:00 11,1 7,6 10,6 46 25 80 43 WNW 1020,8 10 0,0
09.12.2018 09:00:00 11,1 7,0 10,3 43 23 72 39 W 1019,9 10 0,0
09.12.2018 08:00:00 11,3 6,6 8,9 46 25 76 41 W 1019,1 9 0,0
09.12.2018 07:00:00 11,3 5,8 10,3 46 25 79 42 W 1018,4 10 0,0
09.12.2018 06:00:00 11,0 5,5 9,9 42 23 73 39 W 1017,9 12 0,0
09.12.2018 05:00:00 11,1 5,2 9,7 44 24 71 38 W 1017,4 10 0,0
09.12.2018 04:00:00 11,1 5,4 10,0 44 24 76 41 W 1017,2 11 0,0
09.12.2018 03:00:00 10,8 5,5 8,4 42 23 73 39 W 1016,7 11 0,4
09.12.2018 02:00:00 11,4 5,9 9,1 40 22 70 38 W 1016,1 12 0,0
09.12.2018 01:00:00 10,7 8,5 9,5 41 22 65 35 W 1015,8 6 0,0
09.12.2018 00:00:00 11,9 6,4 10,8 38 20 80 43 W 1015,3 10 0,0
08.12.2018 23:00:00 11,6 7,5 10,8 38 20 84 46 W 1015,3 7 0,0
08.12.2018 22:00:00 12,1 8,8 10,6 36 20 55 30 WSW 1014,6 7 0,0
08.12.2018 21:00:00 12,1 8,8 11,0 31 17 64 35 W 1015,0 7 0,0
08.12.2018 20:00:00 12,0 7,7 11,1 41 22 70 38 W 1014,8 8 0,0
08.12.2018 19:00:00 12,5 9,5 11,7 39 21 60 33 WSW 1014,5 7 0,0
08.12.2018 18:00:00 12,5 10,0 11,6 36 19 62 34 W 1014,5 7 0,0
08.12.2018 17:00:00 12,6 10,7 12,0 37 20 63 34 WSW 1014,4 6 0,0
08.12.2018 16:00:00 12,9 11,3 11,7 35 19 71 38 W 1014,0 12 0,2
08.12.2018 15:00:00 12,5 11,9 11,6 39 21 71 39 WSW 1014,1 1,5 0,4
08.12.2018 14:00:00 12,1 11,5 10,9 44 24 70 38 WSW 1015,1 2,6 0,2
08.12.2018 13:00:00 11,6 10,8 10,9 37 20 59 32 SW 1016,1 2,0 0,0
08.12.2018 12:00:00 11,3 10,4 10,3 35 19 56 30 SW 1017,4 3,3 0,0
08.12.2018 11:00:00 11,3 10,0 10,4 39 21 59 32 WSW 1017,7 5 0,2
08.12.2018 10:00:00 11,0 9,9 10,0 30 16 56 31 WSW 1018,3 3,2 0,6
08.12.2018 09:00:00 10,9 9,2 9,9 35 19 60 32 WSW 1018,8 6 0,0
08.12.2018 08:00:00 11,3 8,0 10,0 28 15 50 27 W 1019,2 12 0,0
08.12.2018 07:00:00 11,1 7,0 10,1 28 15 50 27 W 1019,0 14 0,0
08.12.2018 06:00:00 11,1 6,0 10,1 31 17 57 31 W 1018,9 17 0,0
08.12.2018 05:00:00 10,7 6,6 9,3 29 15 51 28 W 1019,3 14 0,0
08.12.2018 04:00:00 10,3 5,9 9,5 31 17 61 33 W 1019,3 18 0,0
08.12.2018 03:00:00 10,6 6,7 9,5 32 18 61 33 W 1019,2 14 0,0
08.12.2018 02:00:00 10,1 5,9 7,8 37 20 65 35 W 1019,0 17 0,0
08.12.2018 01:00:00 10,3 5,7 9,5 39 21 65 35 W 1019,3 19 0,0
08.12.2018 00:00:00 9,9 6,4 8,1 31 17 69 37 W 1018,7 16 0,0
07.12.2018 23:00:00 9,8 6,0 7,1 27 15 72 39 W 1018,9 17 0,2
07.12.2018 22:00:00 9,5 5,9 7,5 34 18 66 35 W 1019,6 4,6 0,8
07.12.2018 21:00:00 10,2 5,0 9,0 34 19 59 32 W 1018,6 19 0,0
07.12.2018 20:00:00 10,2 5,0 9,3 35 19 61 33 W 1018,2 20 0,0
07.12.2018 19:00:00 10,3 4,0 9,3 40 21 72 39 W 1017,6 20 0,0
07.12.2018 18:00:00 9,7 4,5 8,9 32 17 62 34 W 1016,7 19 0,0
07.12.2018 17:00:00 9,8 4,6 8,4 28 15 67 36 W 1015,8 17 0,0
07.12.2018 16:00:00 10,4 3,7 8,9 42 23 78 42 W 1015,3 20 0,0
07.12.2018 15:00:00 10,9 3,9 10,0 46 25 73 40 W 1014,1 24 0,0
07.12.2018 14:00:00 10,8 4,5 8,7 39 21 72 39 W 1013,2 18 0,0
07.12.2018 13:00:00 9,7 4,7 7,7 40 21 73 39 W 1013,1 33 0,0
07.12.2018 12:00:00 11,5 6,4 10,0 34 18 55 30 W 1012,4 18 0,0
07.12.2018 11:00:00 10,6 6,7 9,0 29 16 59 32 WNW 1011,8 17 0,0
07.12.2018 10:00:00 9,3 7,7 8,6 20 11 61 33 W 1011,4 13 2,4
07.12.2018 09:00:00 10,6 9,7 10,1 34 18 73 39 W 1010,1 4,4 2,9
07.12.2018 08:00:00 12,8 12,0 11,7 43 23 67 36 SSW 1009,1 2,2 2,2
07.12.2018 07:00:00 12,4 11,6 11,2 40 22 67 36 SSW 1011,0 2,6 3,4
07.12.2018 06:00:00 12,4 10,8 11,3 35 19 60 33 SSW 1012,3 3,5 0,0
07.12.2018 05:00:00 12,4 10,5 11,1 32 18 57 31 SSW 1013,7 13 0,0
07.12.2018 04:00:00 12,4 10,8 11,1 28 15 49 27 SSW 1015,1 13 0,0
07.12.2018 03:00:00 12,2 11,3 11,4 30 16 51 28 SSW 1016,6 5 0,0
07.12.2018 02:00:00 12,3 11,4 11,0 26 14 48 26 SSW 1017,6 5 0,0
07.12.2018 01:00:00 12,2 11,4 11,1 27 15 53 29 SSW 1018,4 2,4 0,0
07.12.2018 00:00:00 12,4 11,6 11,6 29 16 51 28 SSW 1018,9 4,3 0,0
06.12.2018 23:00:00 12,2 11,6 11,5 26 14 44 24 SSW 1019,5 7 0,0
06.12.2018 22:00:00 12,2 11,6 11,4 25 13 42 23 SSW 1020,2 3,3 0,0
06.12.2018 21:00:00 12,3 11,7 11,3 24 13 39 21 SW 1020,9 6 0,0
06.12.2018 20:00:00 12,2 11,6 11,4 25 13 42 23 SW 1021,4 2,5 0,0
06.12.2018 19:00:00 12,3 11,7 11,2 23 13 45 24 SW 1021,6 1,3 0,0
06.12.2018 18:00:00 12,2 11,6 11,6 29 15 47 25 SW 1021,5 1,7 0,0
06.12.2018 17:00:00 12,3 11,5 11,5 25 13 40 21 SW 1021,4 2,9 0,0
06.12.2018 16:00:00 12,4 11,3 11,8 22 12 32 17 SSW 1021,5 6 0,0
06.12.2018 15:00:00 12,2 11,1 11,5 23 12 49 26 SW 1021,9 4,1 0,0
06.12.2018 14:00:00 13,0 9,8 12,4 21 11 34 18 SW 1022,2 14 0,0
06.12.2018 13:00:00 13,2 10,0 12,1 20 11 36 19 SW 1022,2 14 0,0
06.12.2018 12:00:00 12,8 10,0 12,5 23 12 36 20 WSW 1022,6 14 0,0
06.12.2018 11:00:00 12,9 10,4 11,0 22 12 36 20 WSW 1022,1 15 0,0
06.12.2018 10:00:00 12,0 10,4 11,0 15 8 28 15 WSW 1021,9 10 0,0
06.12.2018 09:00:00 11,6 10,0 10,5 19 11 33 18 WSW 1021,6 19 0,0
06.12.2018 08:00:00 11,6 10,3 10,7 22 12 44 24 W 1021,0 20 0,0
06.12.2018 07:00:00 11,9 11,0 10,9 17 9 32 18 W 1020,2 3,7 0,0
06.12.2018 06:00:00 11,8 10,7 11,1 24 13 39 21 W 1019,8 17 0,0
06.12.2018 05:00:00 11,9 11,3 11,2 23 12 40 21 W 1019,2 6 0,0
06.12.2018 04:00:00 11,9 11,1 11,1 26 14 42 23 W 1018,9 8 0,0
06.12.2018 03:00:00 11,8 11,2 11,2 25 14 45 25 W 1018,3 2,7 0,0
06.12.2018 02:00:00 12,2 11,4 11,3 27 14 37 20 W 1017,9 3,7 0,0
06.12.2018 01:00:00 12,2 11,4 11,6 22 12 36 19 W 1017,0 24 0,0
06.12.2018 00:00:00 12,5 11,7 11,6 22 12 35 19 W 1016,3 17 0,0
05.12.2018 23:00:00 12,5 11,9 11,7 21 11 32 17 WSW 1015,9 4,9 0,0
05.12.2018 22:00:00 12,7 12,1 11,8 19 11 44 24 WSW 1015,3 7 0,0
05.12.2018 21:00:00 12,7 12,1 11,7 24 13 41 22 WSW 1015,1 2,4 0,0
05.12.2018 20:00:00 12,8 12,2 12,0 27 14 41 22 WSW 1014,2 1,8 0,2
05.12.2018 19:00:00 12,8 12,0 11,9 28 15 44 24 SW 1013,7 4,0 0,0
05.12.2018 18:00:00 12,9 12,0 12,0 27 15 44 24 SW 1013,2 7 0,4
05.12.2018 17:00:00 13,1 12,2 12,2 27 14 46 25 SW 1013,1 6 0,2
05.12.2018 16:00:00 13,3 12,2 12,6 27 14 51 28 SW 1013,0 7 0,0
05.12.2018 15:00:00 13,5 12,9 12,1 25 13 55 30 SW 1013,3 7 0,0
05.12.2018 14:00:00 12,7 12,2 11,9 29 15 49 27 SSW 1013,6 3,3 4,3
05.12.2018 13:00:00 12,6 12,0 11,5 26 14 48 26 S 1014,1 1,9 2,4
05.12.2018 12:00:00 12,7 11,9 11,6 29 16 51 27 SSW 1015,6 2,1 0,2
05.12.2018 11:00:00 12,8 11,7 12,0 25 13 44 24 S 1015,9 9 0,0
05.12.2018 10:00:00 12,7 11,8 11,9 22 12 37 20 S 1016,2 10 0,0
05.12.2018 09:00:00 12,4 11,5 11,4 19 10 37 20 S 1016,9 11 0,0
05.12.2018 08:00:00 12,4 11,6 11,7 21 11 35 19 S 1016,8 10 0,0
05.12.2018 07:00:00 12,4 11,6 11,5 20 11 36 20 S 1016,8 9 0,0
05.12.2018 06:00:00 12,5 11,7 12,0 24 13 42 23 S 1017,2 10 0,0
05.12.2018 05:00:00 12,6 12,0 12,0 21 11 37 20 SSW 1017,7 9 0,0
05.12.2018 04:00:00 12,7 12,1 12,0 23 12 45 25 S 1018,1 11 0,0
05.12.2018 03:00:00 12,8 12,3 12,0 23 12 40 22 S 1018,4 12 0,0
05.12.2018 02:00:00 12,8 12,3 12,3 21 12 42 23 SSW 1018,8 5 0,0
05.12.2018 01:00:00 12,7 12,2 12,0 19 11 29 15 SSW 1019,2 0,2 0,0
05.12.2018 00:00:00 12,7 12,2 12,1 17 9 31 17 SSW 1019,4 2,4 0,6

tt = Température de l'air
td = dewpoint
tt 5cm = Température de l'air 5cm
ff = Vitesse du vent
fx = gusts
dd = Direction du vent
ppp = reduced air pressure
vv = visibility
rr = Quantités de précipitations

stations d'obs. à proximité